Weather in Koltsovo

Russia / Kaluga Oblast     54°26′38″N   36°40′13″E
temp.,
°C
wind,
m/s
gust,
m/s
humid.,
%
clouds,
%
prec.,
mm/h
press.,
hPa
HPBL,
m
13 april, tue
tue1300:00+10ese4138911 0.0 1025283
03:00+8se4128766 0.0 1024202
06:00+8se4984100 0.0 1025144
09:00+13sse4964100 0.0 1024287
12:00+18sse6104689 0.0 1024825
15:00+20sse693631 0.0 10231738
18:00+18se484797 0.0 1022230
21:00+12se412575 0.0 1022196
14 april, wed
wed1400:00+10se410645 0.0 1021157
03:00+9sse4107228 0.0 1021174
06:00+8se367969 0.0 102094
09:00+13se466496 0.0 1020286
12:00+16sse5743100 0.0 1019817
15:00+18sse6733100 0.0 10171601
18:00+16se374575 0.0 1017190
21:00+12ese3456100 0.0 101750
15 april, thu
thu1500:00+10se3361100 0.0 101730
03:00+8sse116780 0.0 101710
06:00+8ese3364100 0.0 101631
09:00+12se2455100 0.0 1016247
12:00+16ese3446100 0.0 1016725
15:00+17ese3443100 0.0 10161406
18:00+15ene3755100 0.0 1015192
21:00
16 april, fri
fri1600:00+11ne41072100 0.3 1015205
03:00+10ne5117499 0.3 1015287
06:00+8ne61381100 0.4 1015354
09:00+11ene71374100 0.7 1016600
12:00+15ene81060100 0.3 1016981
15:00+17ene8105390 0.3 10161513
18:00+15ene81260100 0.1 10171031
21:00+12ene81572100 3.6 1019672
17 april, sat
sat1700:00+9ene71481100 0.1 1020627
03:00+8ene8148192 0.1 1020601
06:00+8ene7148088 0.0 1022624
09:00+8ene8127892 0.0 1023665
12:00+10ene7116375 0.0 1024988
15:00+13ene810425 0.0 10241360
18:00+12ne710445 0.0 10251242
21:00+8ne613560 0.0 1027455